GW1437 Weather Reports


time (UTC)temp
C
wind
direction
speed
KPH
gust
KPH
rain 1hr
cm
rain 24hr
cm
rain mn
cm
humidity
%
barometer
mb
20260509185642 18 253 4.8 8.0 0.00 0.51 0.51 73 1009.7
20260509185137 17 235 6.4 9.7 0.00 0.51 0.51 76 1009.8
20260509184636 17 205 1.6 3.2 0.00 0.51 0.51 75 1009.8
20260509184132 17 205 0.0 0.0 0.00 0.51 0.51 80 1009.9
20260509183628 17 212 8.0 11.3 0.00 0.51 0.51 78 1009.8
20260509183124 16 215 3.2 3.2 0.00 0.51 0.51 82 1010.0
20260509182620 15 200 0.0 1.6 0.00 0.51 0.51 84 1010.0
20260509182117 15 187 4.8 4.8 0.00 0.51 0.51 83 1010.3
20260509181615 15 253 0.0 0.0 0.00 0.51 0.51 84 1010.0
20260509181112 15 199 1.6 1.6 0.00 0.51 0.51 83 1010.1
20260509180609 15 195 1.6 3.2 0.00 0.51 0.51 82 1010.3
20260509180106 16 203 3.2 4.8 0.00 0.51 0.51 82 1010.1
20260509175601 16 226 4.8 8.0 0.00 0.51 0.51 80 1010.0
20260509175058 16 243 1.6 3.2 0.00 0.51 0.51 81 1010.0
20260509174554 16 267 4.8 9.7 0.00 0.51 0.51 81 1010.2
20260509174049 16 215 3.2 3.2 0.00 0.51 0.51 81 1010.0
20260509173544 16 190 4.8 8.0 0.00 0.51 0.51 80 1010.0
20260509173041 16 206 1.6 1.6 0.00 0.51 0.51 83 1010.0
20260509172538 15 199 0.0 0.0 0.00 0.51 0.51 84 1009.9
20260509172033 15 218 1.6 1.6 0.00 0.51 0.51 85 1010.0
20260509171529 15 194 1.6 3.2 0.00 0.51 0.51 84 1010.0
20260509171026 16 192 1.6 1.6 0.00 0.51 0.51 83 1009.8
20260509170522 15 203 1.6 1.6 0.00 0.51 0.51 86 1009.8
20260509170018 15 210 1.6 3.2 0.00 0.51 0.51 88 1009.9
20260509165517 15 211 4.8 4.8 0.00 0.51 0.51 86 1010.0
20260509165012 15 192 3.2 3.2 0.00 0.51 0.51 89 1009.8
20260509164509 15 201 1.6 3.2 0.00 0.51 0.51 91 1009.8
20260509164004 15 175 3.2 3.2 0.00 0.51 0.51 91 1009.8
20260509163502 14 194 3.2 4.8 0.00 0.51 0.51 91 1009.8
20260509163002 15 196 1.6 1.6 0.00 0.51 0.51 92 1009.9
20260509162500 14 220 0.0 1.6 0.00 0.51 0.51 95 1009.9
20260509161956 13 224 0.0 1.6 0.00 0.51 0.51 95 1009.8
20260509161452 13 195 1.6 3.2 0.00 0.51 0.51 96 1010.1
20260509160947 12 215 0.0 1.6 0.00 0.51 0.51 97 1009.9
20260509160444 12 195 1.6 1.6 0.13 0.51 0.51 96 1009.9
20260509155938 12 201 0.0 0.0 0.13 0.51 0.51 96 1009.9
20260509155436 12 198 0.0 0.0 0.00 0.48 0.48 96 1009.9
20260509154932 12 212 4.8 9.7 0.00 0.48 0.48 95 1009.8
20260509154428 13 203 0.0 0.0 0.00 0.48 0.48 96 1009.6
20260509153926 12 196 0.0 0.0 0.00 0.48 0.48 96 1009.7
20260509153422 12 219 1.6 1.6 0.00 0.48 0.48 97 1009.6
20260509152920 12 203 1.6 3.2 0.00 0.48 0.48 97 1009.5
20260509152415 12 202 1.6 1.6 0.00 0.48 0.48 97 1009.7
20260509151912 12 201 0.0 0.0 0.00 0.48 0.48 97 1009.8
20260509151408 12 213 0.0 1.6 0.00 0.48 0.48 98 1009.7
20260509150907 12 191 1.6 1.6 0.00 0.48 0.48 98 1009.9
20260509150404 12 203 0.0 0.0 0.00 0.48 0.48 98 1009.8
20260509145903 12 206 1.6 1.6 0.00 0.48 0.48 98 1009.9
20260509145402 12 193 1.6 1.6 0.00 0.48 0.48 98 1009.7
20260509144858 12 190 1.6 3.2 0.00 0.48 0.48 98 1009.9
20260509144355 12 199 0.0 0.0 0.00 0.48 0.48 99 1009.7
20260509143852 11 202 0.0 0.0 0.00 0.48 0.48 99 1009.7
20260509143349 11 203 0.0 0.0 0.00 0.48 0.48 99 1009.8
20260509142846 11 184 0.0 1.6 0.00 0.48 0.48 99 1009.8
20260509142342 11 200 0.0 0.0 0.00 0.48 0.48 99 1009.9
20260509141838 11 197 1.6 3.2 0.00 0.48 0.48 99 1009.7
20260509141335 11 203 0.0 1.6 0.00 0.48 0.48 99 1009.8
20260509140831 11 202 1.6 1.6 0.00 0.48 0.48 99 1009.9
20260509140328 11 211 1.6 3.2 0.18 0.48 0.48 99 1009.8
20260509135827 11 179 1.6 1.6 0.18 0.48 0.48 99 1009.8
20260509135324 11 191 1.6 1.6 0.30 0.48 0.48 99 1009.8
20260509134821 11 209 0.0 1.6 0.13 0.46 0.46 99 1010.0
20260509134318 11 200 0.0 1.6 0.00 0.43 0.43 99 1009.8
20260509133815 11 201 1.6 1.6 0.00 0.43 0.43 99 1009.9
20260509133311 11 197 0.0 0.0 0.18 0.43 0.43 99 1009.9
20260509132810 11 196 1.6 1.6 0.18 0.43 0.43 99 1009.9
20260509132308 11 188 1.6 1.6 0.30 0.43 0.43 99 1010.0
20260509131804 11 176 1.6 1.6 0.13 0.41 0.41 99 1010.2
20260509131301 11 185 1.6 1.6 0.18 0.38 0.38 99 1010.1
20260509130758 11 200 1.6 3.2 0.18 0.38 0.38 99 1010.1
20260509130253 11 193 1.6 1.6 0.00 0.36 0.36 99 1010.1
20260509125750 11 196 0.0 0.0 0.00 0.36 0.36 99 1010.1
20260509125247 11 199 1.6 1.6 0.18 0.36 0.36 99 1010.1
20260509124744 11 202 0.0 0.0 0.18 0.36 0.36 99 1010.2
20260509124240 11 201 0.0 1.6 0.30 0.36 0.36 99 1010.0
20260509123738 10 199 1.6 1.6 0.30 0.33 0.33 99 1010.2
20260509123235 10 201 0.0 0.0 0.30 0.30 0.30 99 1010.3
20260509122731 10 201 0.0 0.0 0.13 0.28 0.28 99 1010.2
20260509122228 10 198 0.0 1.6 0.18 0.25 0.25 99 1010.1
20260509121725 10 203 3.2 4.8 0.30 0.25 0.25 99 1010.3
20260509121222 10 199 0.0 0.0 0.30 0.23 0.23 99 1010.2
20260509120720 10 209 1.6 1.6 0.30 0.20 0.20 99 1010.2
20260509120218 10 195 0.0 0.0 0.30 0.18 0.18 99 1010.2
20260509115715 10 200 0.0 0.0 0.18 0.15 0.15 99 1010.1
20260509115213 10 218 0.0 1.6 0.13 0.13 0.13 99 1010.1
20260509114711 10 200 1.6 1.6 0.30 0.13 0.13 98 1010.1
20260509114209 10 201 0.0 0.0 0.18 0.10 0.10 98 1009.9
20260509113708 10 199 0.0 1.6 0.00 0.08 0.08 98 1009.9
20260509113204 10 184 0.0 1.6 0.00 0.08 0.08 98 1010.0
20260509112701 10 198 0.0 0.0 0.00 0.08 0.08 98 1009.8
20260509112158 10 210 1.6 1.6 0.00 0.08 0.08 98 1009.8
20260509111655 10 200 0.0 1.6 0.00 0.08 0.08 98 1010.0
20260509111152 10 194 1.6 1.6 0.00 0.08 0.08 99 1010.0
20260509110649 10 199 1.6 3.2 0.00 0.08 0.08 99 1009.6
20260509110146 10 200 0.0 0.0 0.00 0.08 0.08 99 1009.9
20260509105644 10 185 1.6 1.6 0.13 0.08 0.08 99 1009.8
20260509105141 10 178 0.0 1.6 0.13 0.08 0.08 99 1009.9
20260509104638 10 199 0.0 0.0 0.00 0.05 0.05 99 1010.0
20260509104135 10 200 0.0 0.0 0.00 0.05 0.05 99 1010.0
20260509103633 10 195 0.0 0.0 0.00 0.05 0.05 99 1009.8
20260509103130 10 188 0.0 0.0 0.00 0.05 0.05 99 1009.9
20260509102628 10 193 0.0 0.0 0.00 0.05 0.05 99 1009.9
20260509102125 10 200 0.0 1.6 0.00 0.05 0.05 99 1009.8
20260509101621 9 199 0.0 0.0 0.00 0.05 0.05 99 1009.7
20260509101118 9 202 0.0 0.0 0.00 0.05 0.05 99 1009.7
20260509100615 9 201 0.0 0.0 0.00 0.05 0.05 99 1009.9
20260509100112 9 207 0.0 0.0 0.00 0.05 0.05 99 1010.1
20260509095608 9 198 0.0 0.0 0.18 0.05 0.05 99 1009.9
20260509095106 9 204 0.0 0.0 0.18 0.05 0.05 99 1010.1
20260509094602 9 199 0.0 0.0 0.18 0.05 0.05 99 1010.0
20260509094100 9 197 0.0 0.0 0.00 0.03 0.03 99 1010.1
20260509093558 8 197 0.0 0.0 0.00 0.03 0.03 99 1010.1
20260509093055 9 197 0.0 0.0 0.00 0.03 0.03 99 1010.2
20260509092552 9 195 0.0 0.0 0.00 0.03 0.03 99 1010.3
20260509092051 9 200 0.0 0.0 0.00 0.03 0.03 99 1010.5
20260509091548 9 197 0.0 0.0 0.00 0.03 0.03 99 1010.4
20260509091045 9 199 0.0 0.0 0.18 0.03 0.03 99 1010.3
20260509090542 9 201 0.0 0.0 0.18 0.03 0.03 99 1010.3
20260509090040 9 199 0.0 0.0 0.00 0.00 0.00 99 1010.2
20260509085537 8 198 0.0 0.0 0.00 0.00 0.00 99 1010.2
20260509085033 9 199 0.0 0.0 0.00 0.00 0.00 99 1010.3
20260509084530 9 200 0.0 0.0 0.00 0.00 0.00 99 1010.3
20260509084027 9 199 0.0 0.0 0.00 0.00 0.00 99 1010.3
20260509083524 9 200 0.0 0.0 0.00 0.00 0.00 99 1010.3
20260509083021 9 199 0.0 0.0 0.00 0.00 0.00 99 1010.1
20260509082519 9 186 0.0 0.0 0.00 0.00 0.00 99 1010.3
20260509082015 9 200 0.0 0.0 0.00 0.00 0.00 99 1010.2
20260509081513 9 200 0.0 0.0 0.00 0.00 0.00 99 1010.4
20260509081009 8 198 0.0 0.0 0.00 0.00 0.00 99 1010.4
20260509080508 8 198 0.0 0.0 0.00 0.00 0.00 99 1010.3
20260509080005 8 208 0.0 0.0 0.00 0.00 0.00 99 1010.2
20260509075502 8 199 0.0 0.0 0.00 0.00 0.00 99 1010.3
20260509075000 8 201 0.0 0.0 0.00 0.00 0.00 99 1010.2
20260509074457 8 197 0.0 0.0 0.00 0.00 0.00 99 1010.1
20260509073953 8 198 0.0 0.0 0.00 0.00 0.00 99 1010.2
20260509073450 8 200 0.0 0.0 0.00 0.00 0.00 99 1010.1
20260509072946 8 198 0.0 0.0 0.00 0.00 0.00 99 1009.9
20260509072443 8 198 0.0 0.0 0.00 0.00 0.00 99 1010.0
20260509071940 8 198 0.0 0.0 0.00 0.00 0.00 99 1009.9
20260509071436 8 199 0.0 0.0 0.00 0.00 0.00 99 1010.0
20260509070934 8 199 0.0 0.0 0.00 0.00 0.00 99 1009.9
20260509070431 8 199 0.0 0.0 0.00 0.00 0.00 99 1010.0
20260509065926 8 198 0.0 0.0 0.00 0.00 0.00 99 1010.0
20260509065423 8 199 0.0 0.0 0.00 0.00 0.00 99 1010.2
20260509064919 8 198 0.0 0.0 0.00 0.00 0.00 99 1010.4
20260509064417 8 199 0.0 0.0 0.00 0.00 0.00 99 1010.4
20260509063914 8 199 0.0 0.0 0.00 0.00 0.00 99 1010.6
20260509063410 8 193 0.0 0.0 0.00 0.00 0.00 99 1010.4
20260509062907 8 201 0.0 0.0 0.00 0.00 0.00 99 1010.5
20260509062404 8 201 0.0 0.0 0.00 0.00 0.00 99 1010.5
20260509061902 8 201 0.0 0.0 0.00 0.00 0.00 99 1010.5
20260509061400 8 199 0.0 0.0 0.00 0.00 0.00 99 1010.9
20260509060856 8 199 0.0 0.0 0.00 0.00 0.00 99 1010.8
20260509060353 8 200 0.0 0.0 0.00 0.00 0.00 99 1011.0
20260509055848 8 198 0.0 0.0 0.00 0.00 0.00 99 1010.8
20260509055344 8 198 0.0 0.0 0.00 0.00 0.00 99 1010.9
20260509054841 8 199 0.0 0.0 0.00 0.00 0.00 99 1011.1
20260509054338 8 199 0.0 0.0 0.00 0.00 0.00 99 1011.1
20260509053836 8 199 0.0 0.0 0.00 0.00 0.00 99 1011.3
20260509053333 8 194 0.0 0.0 0.00 0.00 0.00 99 1011.3
20260509052832 8 193 0.0 0.0 0.00 0.00 0.00 99 1011.5
20260509052329 8 200 0.0 0.0 0.00 0.00 0.00 99 1011.2
20260509051826 8 200 0.0 0.0 0.00 0.00 0.00 99 1011.4
20260509051324 8 198 0.0 0.0 0.00 0.00 0.00 99 1011.1
20260509050820 9 196 0.0 0.0 0.00 0.00 0.00 99 1011.4
20260509050317 9 198 0.0 0.0 0.00 0.00 0.00 99 1011.6
20260509045814 9 197 0.0 0.0 0.00 0.00 0.00 99 1011.5
20260509045311 9 201 0.0 0.0 0.00 0.00 0.00 99 1011.6
20260509044809 9 201 0.0 0.0 0.00 0.00 0.00 99 1011.5
20260509044306 9 202 0.0 0.0 0.00 0.00 0.00 99 1011.5
20260509043802 9 198 0.0 0.0 0.00 0.00 0.00 99 1011.5
20260509043258 9 197 0.0 0.0 0.00 0.00 0.00 99 1011.7
20260509042754 9 200 0.0 0.0 0.00 0.00 0.00 99 1012.1
20260509042251 9 197 0.0 0.0 0.00 0.00 0.00 99 1011.8
20260509041748 9 192 0.0 0.0 0.00 0.00 0.00 99 1012.0
20260509041245 9 195 0.0 0.0 0.00 0.00 0.00 99 1012.2
20260509040743 9 197 0.0 0.0 0.00 0.00 0.00 99 1012.3
20260509040240 9 196 0.0 0.0 0.00 0.00 0.00 99 1012.4
20260509035737 9 199 0.0 0.0 0.00 0.10 0.10 99 1012.4
20260509035233 9 198 0.0 0.0 0.00 0.10 0.10 99 1012.7
20260509034731 9 197 0.0 0.0 0.00 0.10 0.10 99 1012.5
20260509034228 10 197 0.0 0.0 0.00 0.10 0.10 99 1012.7
20260509033725 10 198 0.0 0.0 0.00 0.10 0.10 99 1012.8
20260509033222 10 195 0.0 0.0 0.00 0.10 0.10 99 1012.8
20260509032719 10 205 0.0 0.0 0.13 0.10 0.10 99 1012.8
20260509032216 10 198 0.0 0.0 0.13 0.10 0.10 99 1013.0
20260509031714 10 197 0.0 0.0 0.00 0.08 0.08 99 1013.0
20260509031211 10 194 0.0 1.6 0.00 0.08 0.08 99 1013.2
20260509030709 10 198 0.0 0.0 0.00 0.08 0.08 98 1013.2
20260509030206 10 196 0.0 0.0 0.18 0.08 0.08 98 1013.3
20260509025702 10 200 0.0 0.0 0.18 0.08 0.08 98 1013.4
20260509025158 10 198 0.0 0.0 0.18 0.08 0.08 98 1013.3
20260509024653 10 196 0.0 0.0 0.00 0.05 0.05 97 1013.3
20260509024149 10 198 0.0 0.0 0.00 0.05 0.05 97 1013.2
20260509023648 10 194 0.0 0.0 0.00 0.05 0.05 96 1013.3
20260509023144 10 204 0.0 1.6 0.00 0.05 0.05 96 1013.4
20260509022640 10 202 0.0 1.6 0.13 0.05 0.05 96 1013.1
20260509022138 10 178 1.6 1.6 0.13 0.05 0.05 96 1013.3
20260509021635 10 202 0.0 0.0 0.00 0.03 0.03 96 1012.7
20260509021132 10 201 0.0 0.0 0.00 0.03 0.03 96 1012.6
20260509020631 10 216 1.6 3.2 0.00 0.03 0.03 96 1012.7
20260509020127 10 193 0.0 0.0 0.00 0.03 0.03 96 1012.7
20260509015626 10 203 0.0 0.0 0.00 0.03 0.03 95 1012.6
20260509015123 10 199 0.0 0.0 0.00 0.03 0.03 95 1012.8
20260509014619 10 181 0.0 0.0 0.00 0.03 0.03 95 1012.7
20260509014116 10 203 0.0 0.0 0.00 0.03 0.03 95 1012.8
20260509013613 10 193 0.0 1.6 0.00 0.03 0.03 94 1012.8
20260509013108 10 197 0.0 0.0 0.00 0.03 0.03 94 1012.6
20260509012606 10 206 0.0 0.0 0.00 0.03 0.03 94 1012.6
20260509012102 10 195 0.0 0.0 0.00 0.03 0.03 94 1012.2
20260509011600 10 196 0.0 0.0 0.00 0.03 0.03 94 1012.2
20260509011057 10 198 0.0 0.0 0.00 0.03 0.03 93 1012.0
20260509010555 10 202 0.0 0.0 0.00 0.03 0.03 93 1012.1
20260509010051 10 200 0.0 0.0 0.00 0.03 0.03 92 1012.1
20260509005549 10 199 0.0 0.0 0.00 0.03 0.03 92 1012.2
20260509005044 10 203 0.0 0.0 0.00 0.03 0.03 92 1011.8
20260509004541 10 191 0.0 1.6 0.00 0.03 0.03 91 1011.7
20260509004038 11 200 0.0 0.0 0.00 0.03 0.03 91 1012.1
20260509003536 11 196 0.0 0.0 0.00 0.03 0.03 90 1012.0
20260509003033 11 164 4.8 4.8 0.00 0.03 0.03 88 1012.0
20260509002531 11 197 0.0 0.0 0.00 0.03 0.03 89 1011.7
20260509002028 10 199 0.0 0.0 0.00 0.03 0.03 90 1011.6
20260509001525 11 199 0.0 0.0 0.00 0.03 0.03 91 1011.7
20260509001021 11 203 0.0 0.0 0.00 0.03 0.03 90 1012.2
20260509000520 11 202 0.0 0.0 0.00 0.03 0.03 89 1012.2
20260509000015 11 186 1.6 1.6 0.00 0.03 0.03 89 1011.8
20260508235513 11 194 0.0 0.0 0.18 0.03 0.03 88 1011.6
20260508235009 11 185 1.6 1.6 0.18 0.03 0.03 88 1011.7
20260508234507 11 200 0.0 1.6 0.00 0.00 0.00 87 1011.7
20260508234004 11 193 0.0 0.0 0.00 0.00 0.00 88 1012.2
20260508233503 11 195 0.0 0.0 0.00 0.00 0.00 87 1012.4
20260508233000 11 190 0.0 0.0 0.00 0.00 0.00 87 1012.2
20260508232457 11 207 0.0 0.0 0.00 0.00 0.00 87 1012.2
20260508231954 12 201 0.0 0.0 0.00 0.00 0.00 87 1012.3
20260508231451 12 199 1.6 1.6 0.00 0.00 0.00 86 1012.0
20260508230948 12 210 1.6 1.6 0.00 0.00 0.00 85 1012.1
20260508230444 12 262 3.2 4.8 0.00 0.00 0.00 85 1012.2
20260508225941 12 194 0.0 0.0 0.00 0.00 0.00 86 1012.1
20260508225439 12 199 0.0 0.0 0.00 0.00 0.00 87 1012.0
20260508224936 12 188 0.0 1.6 0.00 0.00 0.00 86 1012.1
20260508224433 12 181 0.0 0.0 0.00 0.00 0.00 84 1012.3
20260508223930 12 16 1.6 1.6 0.00 0.00 0.00 83 1012.3
20260508223429 12 193 0.0 0.0 0.00 0.00 0.00 82 1012.4
20260508222925 12 193 0.0 0.0 0.00 0.00 0.00 82 1012.3
20260508222423 12 184 1.6 1.6 0.00 0.00 0.00 80 1012.2
20260508221919 12 132 0.0 1.6 0.00 0.00 0.00 81 1012.3
20260508221415 12 191 0.0 1.6 0.00 0.00 0.00 80 1012.3
20260508220911 13 266 0.0 1.6 0.00 0.00 0.00 79 1012.3
20260508220408 13 211 1.6 1.6 0.00 0.00 0.00 82 1012.3
20260508215904 13 186 0.0 0.0 0.00 0.00 0.00 82 1012.3
20260508215401 13 195 0.0 0.0 0.00 0.00 0.00 81 1012.3
20260508214858 13 118 1.6 1.6 0.00 0.00 0.00 80 1012.3
20260508214355 13 192 0.0 0.0 0.00 0.00 0.00 78 1012.1
20260508213851 13 202 0.0 0.0 0.00 0.00 0.00 76 1012.3
20260508213349 13 200 0.0 0.0 0.00 0.00 0.00 77 1012.1
20260508212844 13 202 0.0 0.0 0.00 0.00 0.00 76 1012.3
20260508212341 13 199 0.0 0.0 0.00 0.00 0.00 76 1012.4
20260508211837 13 199 0.0 0.0 0.00 0.00 0.00 76 1012.2
20260508211333 13 197 0.0 0.0 0.00 0.00 0.00 75 1012.3
20260508210831 13 199 0.0 0.0 0.00 0.00 0.00 76 1012.4
20260508210327 13 189 1.6 3.2 0.00 0.00 0.00 74 1012.4
20260508205818 13 193 0.0 0.0 0.00 0.00 0.00 76 1012.6
20260508205314 13 191 0.0 1.6 0.00 0.00 0.00 75 1012.5
20260508204811 13 207 0.0 1.6 0.00 0.00 0.00 75 1012.5
20260508204308 12 203 0.0 0.0 0.00 0.00 0.00 77 1012.4
20260508203804 12 200 0.0 0.0 0.00 0.00 0.00 76 1012.7
20260508203300 12 199 0.0 0.0 0.00 0.00 0.00 75 1012.7
20260508202755 13 200 0.0 0.0 0.00 0.00 0.00 75 1012.7
20260508202253 13 202 0.0 0.0 0.00 0.00 0.00 72 1012.7
20260508201750 13 192 4.8 4.8 0.00 0.00 0.00 72 1012.9
20260508201247 13 201 1.6 3.2 0.00 0.00 0.00 72 1013.0
20260508200743 13 197 3.2 4.8 0.00 0.00 0.00 71 1013.2
20260508200240 13 198 1.6 1.6 0.00 0.00 0.00 72 1013.4
20260508195736 13 202 0.0 0.0 0.00 0.00 0.00 72 1013.2
20260508195232 13 199 1.6 1.6 0.00 0.00 0.00 70 1013.3
20260508194729 13 271 3.2 3.2 0.00 0.00 0.00 68 1013.5
20260508194226 14 174 4.8 4.8 0.00 0.00 0.00 67 1013.4
20260508193723 14 199 8.0 12.9 0.00 0.00 0.00 64 1013.5
20260508193220 14 191 3.2 4.8 0.00 0.00 0.00 63 1013.2
20260508192716 14 237 3.2 3.2 0.00 0.00 0.00 63 1013.5
20260508192214 15 190 3.2 3.2 0.00 0.00 0.00 63 1013.4
20260508191711 15 204 3.2 3.2 0.00 0.00 0.00 63 1013.3
20260508191208 15 228 4.8 8.0 0.00 0.00 0.00 62 1013.2
20260508190705 15 207 1.6 3.2 0.00 0.00 0.00 62 1013.3
20260508190201 15 193 0.0 1.6 0.00 0.00 0.00 61 1013.4